TimeEST,TemperatureF,Dew PointF,Humidity,Sea Level PressureIn,VisibilityMPH,Wind Direction,Wind SpeedMPH,Gust SpeedMPH,PrecipitationIn,Events,Conditions,WindDirDegrees,DateUTC
12:51 AM,6.1,-0.0,76,30.32,7.0,NE,8.1,-,N/A,,Overcast,50,2013-02-08 05:51:00
1:10 AM,6.8,1.4,79,30.19,2.5,NE,8.1,-,0.00,Snow,Light Snow,50,2013-02-08 06:10:00
1:51 AM,6.1,1.9,83,30.28,1.5,NE,9.2,-,0.00,Snow,Light Snow,50,2013-02-08 06:51:00
2:45 AM,6.8,3.2,85,30.15,0.8,NE,8.1,-,0.01,Snow,Light Snow,50,2013-02-08 07:45:00
2:51 AM,7.0,3.0,84,30.25,0.8,NE,9.2,-,0.01,Snow,Light Snow,40,2013-02-08 07:51:00
3:01 AM,6.8,3.2,85,30.14,0.5,NE,8.1,-,0.00,Fog-Snow,Snow,50,2013-02-08 08:01:00
3:30 AM,6.8,3.2,85,30.11,0.8,ENE,11.5,-,0.01,Snow,Light Snow,60,2013-02-08 08:30:00
3:41 AM,6.8,3.2,85,30.11,1.0,ENE,10.4,-,0.01,Snow,Light Snow,70,2013-02-08 08:41:00
3:51 AM,8.1,3.9,83,30.21,0.5,ENE,9.2,-,0.02,Fog-Snow,Snow,60,2013-02-08 08:51:00
4:06 AM,8.6,3.2,79,30.10,0.5,ENE,10.4,-,0.00,Fog-Snow,Snow,70,2013-02-08 09:06:00
4:29 AM,8.6,5.0,85,30.09,0.8,NE,10.4,-,0.01,Snow,Light Snow,50,2013-02-08 09:29:00
4:51 AM,8.1,3.9,83,30.19,0.8,ENE,10.4,-,0.02,Snow,Light Snow,60,2013-02-08 09:51:00
5:17 AM,8.6,5.0,85,30.08,0.8,ENE,9.2,-,0.01,Snow,Light Snow,60,2013-02-08 10:17:00
5:51 AM,9.0,5.0,84,30.18,0.8,ENE,11.5,-,0.03,Snow,Light Snow,60,2013-02-08 10:51:00
6:06 AM,8.6,5.0,85,30.07,1.0,ENE,10.4,-,0.00,Snow,Light Snow,60,2013-02-08 11:06:00
6:51 AM,9.0,5.0,84,30.17,0.8,ENE,8.1,-,0.01,Snow,Light Snow,60,2013-02-08 11:51:00
6:55 AM,8.6,6.8,92,30.06,1.0,ENE,9.2,-,0.01,Snow,Light Snow,60,2013-02-08 11:55:00
7:31 AM,10.4,6.8,85,30.05,0.8,ENE,10.4,-,0.01,Snow,Light Snow,60,2013-02-08 12:31:00
7:42 AM,10.4,6.8,85,30.05,0.2,ENE,9.2,-,0.02,Fog-Snow,Snow,60,2013-02-08 12:42:00
7:51 AM,10.9,8.1,88,30.16,0.2,NE,9.2,-,0.02,Fog-Snow,Snow,50,2013-02-08 12:51:00
8:06 AM,10.4,8.6,92,30.04,0.2,NE,10.4,-,0.01,Fog-Snow,Snow,50,2013-02-08 13:06:00
8:34 AM,12.2,8.6,85,30.03,0.2,ENE,9.2,-,0.02,Fog-Snow,Snow,60,2013-02-08 13:34:00
8:49 AM,12.2,8.6,85,30.03,0.5,ENE,9.2,-,0.03,Fog-Snow,Snow,60,2013-02-08 13:49:00
8:50 AM,12.9,9.0,84,30.14,0.5,ENE,10.4,-,0.03,Fog-Snow,Snow,60,2013-02-08 13:50:00
9:51 AM,12.9,10.0,88,30.13,0.5,ENE,10.4,-,0.01,Fog-Snow,Snow,60,2013-02-08 14:51:00
10:51 AM,14.0,10.9,88,30.11,0.5,ENE,9.2,-,0.01,Fog-Snow,Snow,70,2013-02-08 15:51:00
11:51 AM,16.0,12.0,84,30.07,0.5,ENE,9.2,-,0.01,Fog-Snow,Snow,60,2013-02-08 16:51:00
11:58 AM,15.8,12.2,86,29.96,0.8,ENE,8.1,-,0.00,Snow,Light Snow,60,2013-02-08 16:58:00
12:22 PM,15.8,12.2,86,29.94,0.2,ENE,11.5,-,0.01,Fog-Snow,Snow,60,2013-02-08 17:22:00
12:51 PM,17.1,12.9,84,30.03,0.5,ENE,11.5,-,0.01,Fog-Snow,Snow,60,2013-02-08 17:51:00
1:51 PM,17.1,12.9,84,30.00,0.5,ENE,12.7,-,0.01,Fog-Snow,Snow,70,2013-02-08 18:51:00
2:41 PM,17.6,15.8,93,29.87,0.2,ENE,10.4,-,0.01,Fog-Snow,Heavy Snow,70,2013-02-08 19:41:00
2:51 PM,18.0,15.1,88,29.96,0.2,ENE,9.2,-,0.01,Fog-Snow,Snow,70,2013-02-08 19:51:00
3:12 PM,17.6,15.8,93,29.85,0.5,ENE,9.2,-,0.01,Fog-Snow,Snow,60,2013-02-08 20:12:00
3:25 PM,17.6,15.8,93,29.85,0.5,ENE,10.4,-,0.01,Fog-Snow,Light Snow,60,2013-02-08 20:25:00
3:51 PM,18.0,15.1,88,29.94,0.8,ENE,5.8,-,0.01,Snow,Light Snow,70,2013-02-08 20:51:00
4:22 PM,19.4,15.8,86,29.83,0.5,ENE,10.4,-,0.00,Fog-Snow,Snow,70,2013-02-08 21:22:00
4:51 PM,18.0,15.1,88,29.92,0.5,ENE,10.4,-,0.01,Fog-Snow,Snow,60,2013-02-08 21:51:00
4:59 PM,17.6,15.8,93,29.82,0.8,ENE,12.7,-,0.00,Snow,Light Snow,60,2013-02-08 21:59:00
5:11 PM,17.6,15.8,93,29.82,1.2,ENE,11.5,-,0.00,Snow,Light Snow,60,2013-02-08 22:11:00
5:18 PM,17.6,15.8,93,29.82,2.0,ENE,12.7,-,0.00,Snow,Light Snow,60,2013-02-08 22:18:00
5:29 PM,17.6,15.8,93,29.82,4.0,ENE,15.0,-,0.00,,Overcast,60,2013-02-08 22:29:00
5:47 PM,17.6,15.8,93,29.82,2.5,ENE,13.8,-,0.00,Snow,Light Snow,60,2013-02-08 22:47:00
5:51 PM,18.0,15.1,88,29.92,2.5,ENE,13.8,-,0.00,Snow,Light Snow,60,2013-02-08 22:51:00
6:00 PM,19.4,15.8,86,29.83,3.0,ENE,12.7,-,0.00,Snow,Light Snow,60,2013-02-08 23:00:00
6:10 PM,19.4,15.8,86,29.83,1.8,NE,16.1,-,0.00,Snow,Light Snow,50,2013-02-08 23:10:00
6:20 PM,17.6,15.8,93,29.83,1.2,ENE,15.0,-,0.00,Snow,Light Snow,60,2013-02-08 23:20:00
6:36 PM,17.6,15.8,93,29.83,0.8,ENE,13.8,-,0.00,Snow,Light Snow,60,2013-02-08 23:36:00
6:43 PM,17.6,15.8,93,29.83,1.0,ENE,15.0,-,0.00,Snow,Light Snow,60,2013-02-08 23:43:00
6:51 PM,18.0,15.1,88,29.92,1.0,NE,17.3,-,0.00,Snow,Light Snow,50,2013-02-08 23:51:00
7:00 PM,17.6,15.8,93,29.83,0.8,NE,13.8,-,0.00,Snow,Light Snow,50,2013-02-09 00:00:00
7:51 PM,18.0,15.1,88,29.94,0.5,NE,13.8,-,0.01,Fog-Snow,Snow,40,2013-02-09 00:51:00
8:30 PM,17.6,14.0,86,29.85,0.8,NE,13.8,-,0.01,Snow,Light Snow,40,2013-02-09 01:30:00
8:48 PM,17.6,14.0,86,29.85,1.0,NE,15.0,-,0.01,Snow,Light Snow,40,2013-02-09 01:48:00
8:51 PM,17.1,12.9,84,29.95,1.0,NE,11.5,-,0.01,Snow,Light Snow,40,2013-02-09 01:51:00
9:27 PM,17.6,12.2,79,29.87,0.8,NE,10.4,-,0.00,Snow,Light Snow,40,2013-02-09 02:27:00
9:51 PM,16.0,12.9,88,29.96,1.0,NNE,5.8,-,0.00,Snow,Light Snow,30,2013-02-09 02:51:00
10:02 PM,15.8,14.0,93,29.87,0.8,NNE,5.8,-,0.01,Snow,Light Snow,20,2013-02-09 03:02:00
10:17 PM,15.8,12.2,86,29.87,1.0,North,4.6,-,0.02,Snow,Light Snow,10,2013-02-09 03:17:00
10:33 PM,15.8,12.2,86,29.86,1.5,NNE,8.1,-,0.02,Snow,Light Snow,20,2013-02-09 03:33:00
10:51 PM,15.1,12.0,88,29.96,1.8,North,6.9,-,0.02,Snow,Light Snow,360,2013-02-09 03:51:00
10:59 PM,15.8,10.4,79,29.87,2.5,North,6.9,-,0.00,Snow,Light Snow,350,2013-02-09 03:59:00
11:09 PM,14.0,10.4,86,29.87,3.0,North,8.1,-,0.00,Snow,Light Snow,360,2013-02-09 04:09:00
11:39 PM,12.2,8.6,85,29.86,2.5,NNE,8.1,-,0.00,Snow,Light Snow,20,2013-02-09 04:39:00
11:51 PM,12.0,9.0,88,29.96,2.0,NE,9.2,-,0.00,Snow,Light Snow,40,2013-02-09 04:51:00